[[{"header":{"parameterUnit":"m.s-1","parameterCategory":1,"la1":30.2991,"la2":30.254,"lo1":-89.0895,"lo2":-89.0444,"dy":0.0017,"dx":0.0017,"nx":28,"ny":28,"refTime":"2025-03-18T21:00:00:Z","depth":0,"parameterNumber":2,"parameterNumberName":"U-component_of_WINDS"},"data":[0,0,0,0,0,0,0,0,0,0,0,0,0,0,0,0,0,0,0,0,0,0,0,0,0,0,0,0,0,0,0,0,0,0,0,0,0,0,0,0,0,0,0,0,0,0,0,0,0,0,0,0,0,0,0,0,0,0,1.9957,1.9957,0,1.9972,1.9973,1.9973,1.9941,1.994,1.9939,1.9938,1.9953,1.9954,1.9955,0,0,0,0,0,0,0,0,0,0,0,0,0,1.9898,1.9899,1.9957,1.9957,1.9957,1.9972,1.9973,1.9973,1.9941,1.994,1.9939,1.9938,1.9952,1.9954,1.9955,0,0,0,0,0,0,0,0,0,0,0,0,0,1.9919,1.9899,1.9957,1.9943,1.9942,1.9972,1.9973,1.9973,1.9941,1.994,1.9938,1.9937,1.9952,1.9954,1.9956,1.9999,0,0,1.9962,1.9963,0,0,0,0,0,0,0,0,1.9918,1.9921,1.9945,1.9944,1.9943,1.9953,1.9957,1.9982,1.9942,1.9942,1.9938,1.9936,1.9954,1.9956,1.9962,2.0,2.0,1.9962,1.9963,1.9964,1.9965,0,0,0,0,0,0,0,1.9917,1.9921,1.9963,1.9945,1.9944,1.9936,1.9937,1.9962,1.9956,1.9942,1.9939,1.9942,1.9953,1.996,1.9962,2.0001,1.9962,1.9964,1.9965,1.9966,2.0073,2.0074,0,0,0,0,0,0,1.9917,1.992,1.9962,1.9963,1.9927,1.9938,1.994,1.9952,1.9956,1.9955,1.9943,1.994,1.9957,1.996,1.9963,2.0012,1.9964,1.9966,1.9967,2.0071,2.0073,2.0075,0,0,0,0,0,0,1.9916,1.9921,1.9962,1.9941,1.9945,1.9941,1.9954,1.9953,1.996,1.9957,1.9956,1.9951,1.9956,1.996,1.999,2.0012,1.9967,1.9969,2.0069,2.0072,2.0074,2.0112,0,0,0,0,0,0,1.9914,1.9921,1.9938,1.9942,1.9947,1.999,1.9956,1.9954,1.9963,1.996,1.9964,1.9964,1.9955,1.9987,1.9992,2.0014,1.997,2.0067,2.007,2.0073,2.0109,2.0116,2.0122,0,0,0,0,0,1.9912,1.9948,1.9939,1.9944,1.9968,1.9991,1.9994,1.9984,1.9965,1.9982,1.998,1.9963,2.0009,1.999,1.9996,2.0019,2.0066,2.0069,2.0073,2.0106,2.0114,2.0121,0,0,0,0,0,0,1.9948,1.9949,1.9938,1.9977,1.9984,1.9986,2.0006,1.9993,2.0006,2.0002,1.9989,1.999,2.0022,2.0024,2.0003,2.006,2.0034,2.0039,2.0058,2.0065,2.0072,2.007,1.9972,0,0,0,0,0,1.996,1.9979,1.9979,2.0013,2.0017,2.0011,2.0021,2.0012,2.0019,2.0022,2.0022,2.0029,2.0045,2.0055,2.007,2.0109,2.0109,2.0128,2.0134,2.0139,2.0143,2.0162,2.017,2.0087,2.0087,2.0087,0,0,1.9985,1.9988,2.0001,2.002,2.0024,2.0043,2.0014,2.0036,2.0049,2.0025,2.0053,2.0054,2.0061,2.0095,2.011,2.0097,2.0166,2.0144,2.0148,2.0149,2.0167,2.0175,2.0182,2.0089,2.0089,2.0088,0,0,2.0041,2.0046,2.0074,2.0079,2.0086,2.0082,2.0089,2.0092,2.0092,2.012,2.0101,2.0117,2.0145,2.015,2.0156,2.0213,2.0197,2.0218,2.025,2.0269,2.0276,2.0281,2.03,2.0307,2.0222,2.0222,2.0222,0,2.0071,2.01,2.009,2.0112,2.012,2.01,2.0127,2.0132,2.0144,2.0149,2.0135,2.0168,2.0171,2.0206,2.022,2.0226,2.0232,2.0217,2.0276,2.0281,2.0286,2.0304,2.0311,2.0225,2.0224,2.0224,2.0224,0,2.0136,2.0156,2.0178,2.0189,2.02,2.0225,2.0217,2.0229,2.022,2.0217,2.0245,2.0248,2.0262,2.027,2.0261,2.0302,2.0294,2.0278,2.0251,2.0297,2.0313,2.0319,2.0228,2.0227,2.0226,2.0226,0,0,2.0214,2.0219,2.0227,2.0231,2.0237,2.0252,2.0276,2.0289,2.0299,2.0308,2.0326,2.035,2.0334,2.0341,2.0333,2.035,2.0392,2.0331,2.0331,2.0341,2.0436,2.0447,2.0455,2.0383,2.0384,2.0385,2.0435,0,2.0268,2.0308,2.0299,2.0338,2.0356,2.0336,2.0356,2.0362,2.036,2.0373,2.0371,2.0387,2.0367,2.037,2.0386,2.0384,2.0411,2.038,2.0398,2.0399,2.0396,2.0464,2.0475,2.0522,2.0441,2.0442,2.0443,0,2.0336,2.0346,2.0388,2.039,2.0396,2.0415,2.0426,2.044,2.0445,2.0442,2.045,2.0438,2.046,2.0435,2.0464,2.0443,2.045,2.045,2.0452,2.0452,2.0423,2.0464,2.0537,2.0544,2.0453,2.0453,2.0452,0,2.0386,2.0411,2.0438,2.0443,2.0446,2.0459,2.0461,2.0465,2.0474,2.0483,2.0488,2.0501,2.0507,2.0516,2.0507,2.049,2.0538,2.0512,2.0535,2.0535,2.0544,2.0543,2.0618,2.0552,2.0552,2.0552,2.0551,0,2.0446,2.0471,2.046,2.0477,2.0505,2.0494,2.0521,2.0521,2.0524,2.054,2.0524,2.0539,2.0527,2.0541,2.0534,2.0559,2.0562,2.0559,2.0557,2.056,2.056,2.0563,2.0559,2.0553,2.0553,2.0553,2.0552,0,2.0506,2.05,2.0528,2.0529,2.053,2.055,2.055,2.0565,2.0562,2.0581,2.0585,2.058,2.0595,2.0587,2.0604,2.0599,2.063,2.0624,2.0628,2.0626,2.0648,2.0645,2.0726,2.0735,2.0665,2.0665,2.0666,0,2.0543,2.0562,2.0565,2.0574,2.0577,2.0593,2.0601,2.0591,2.06,2.0607,2.0621,2.0634,2.0645,2.067,2.0666,2.0678,2.0671,2.0699,2.0673,2.0675,2.0669,2.0668,2.0669,2.0703,2.0704,2.0705,2.0706,0,2.061,2.0606,2.0618,2.063,2.064,2.0649,2.0656,2.0664,2.0654,2.0665,2.068,2.0688,2.0704,2.0717,2.0727,2.0728,2.0715,2.0714,2.0719,2.0722,2.0722,2.072,2.064,2.0712,2.0711,2.0711,2.071,2.071,2.0658,2.0674,2.0678,2.0692,2.0696,2.0703,2.0716,2.0714,2.0727,2.0739,2.0732,2.075,2.0753,2.0765,2.0769,2.0781,2.077,2.0779,2.0781,2.0783,2.0785,2.0722,2.0783,2.0783,2.0783,2.0783,2.0783,0,2.0722,2.0724,2.0737,2.0747,2.0758,2.0745,2.0752,2.0762,2.0777,2.0782,2.0792,2.0809,2.0822,2.082,2.0831,2.0842,2.0836,2.0845,2.0843,2.0843,2.0795,2.0788,2.0849,2.0849,2.0849,2.0849,2.0849,2.0849,2.0757,2.0781,2.0778,2.0804,2.0805,2.0822,2.0826,2.0832,2.0836,2.0855,2.0866,2.0864,2.0866,2.0877,2.0888,2.0887,2.0891,2.0902,2.0899,2.0853,2.0847,2.084,2.0834,2.0904,2.0904,2.0946,2.0946,2.0946]},{"header":{"parameterUnit":"m.s-1","parameterCategory":1,"la1":30.2991,"la2":30.254,"lo1":-89.0895,"lo2":-89.0444,"dy":0.0017,"dx":0.0017,"nx":28,"ny":28,"refTime":"2025-03-18T21:00:00:Z","depth":0,"parameterNumber":3,"parameterNumberName":"V-component_of_WINDS"},"data":[0,0,0,0,0,0,0,0,0,0,0,0,0,0,0,0,0,0,0,0,0,0,0,0,0,0,0,0,0,0,0,0,0,0,0,0,0,0,0,0,0,0,0,0,0,0,0,0,0,0,0,0,0,0,0,0,0,0,6.415,6.4152,0,6.4276,6.4278,6.4279,6.4237,6.4235,6.4232,6.4229,6.4353,6.4359,6.4365,0,0,0,0,0,0,0,0,0,0,0,0,0,6.3869,6.3875,6.415,6.4152,6.4153,6.4276,6.4278,6.4279,6.4238,6.4234,6.4231,6.4228,6.4351,6.4358,6.4365,0,0,0,0,0,0,0,0,0,0,0,0,0,6.3993,6.3876,6.415,6.4147,6.4149,6.4276,6.4278,6.428,6.4238,6.4234,6.423,6.4227,6.4349,6.4358,6.4366,6.4502,0,0,6.4393,6.4397,0,0,0,0,0,0,0,0,6.3986,6.4003,6.4146,6.4148,6.4149,6.4237,6.4224,6.4354,6.4239,6.4204,6.4229,6.4225,6.4318,6.4329,6.4361,6.4507,6.4513,6.4394,6.4399,6.4403,6.4405,0,0,0,0,0,0,0,6.3977,6.3997,6.42,6.4148,6.415,6.4139,6.4152,6.4248,6.4282,6.4207,6.4204,6.422,6.4317,6.4353,6.4364,6.4515,6.4393,6.4401,6.4407,6.441,6.4779,6.4783,0,0,0,0,0,0,6.3968,6.399,6.4196,6.4204,6.4056,6.4147,6.4162,6.4213,6.4281,6.4287,6.4223,6.4218,6.434,6.4353,6.4368,6.4531,6.4403,6.4411,6.4416,6.4774,6.478,6.4785,0,0,0,0,0,0,6.3963,6.3987,6.4191,6.4096,6.4122,6.4156,6.4214,6.4217,6.4253,6.4293,6.4299,6.4253,6.4337,6.4355,6.4469,6.4535,6.4415,6.4423,6.4769,6.4776,6.4782,6.486,0,0,0,0,0,0,6.3955,6.3985,6.4038,6.4098,6.4127,6.4292,6.4218,6.4223,6.4268,6.4262,6.4323,6.4329,6.4335,6.4456,6.4478,6.4545,6.443,6.4763,6.4772,6.478,6.4851,6.4868,6.4883,0,0,0,0,0,6.3945,6.4054,6.4041,6.4066,6.4194,6.4295,6.4312,6.4318,6.4274,6.4327,6.4353,6.4327,6.4525,6.4468,6.4492,6.4563,6.4759,6.477,6.478,6.4844,6.4865,6.4882,0,0,0,0,0,0,6.3998,6.4061,6.4048,6.418,6.4233,6.4288,6.4355,6.434,6.4405,6.4396,6.44,6.4414,6.4531,6.4558,6.4494,6.4698,6.4635,6.465,6.4676,6.4696,6.4711,6.4702,6.4437,0,0,0,0,0,6.4026,6.4105,6.4155,6.4266,6.4294,6.432,6.4364,6.4365,6.4419,6.4441,6.4475,6.4528,6.4602,6.465,6.472,6.4855,6.4867,6.4915,6.4931,6.4944,6.4957,6.5031,6.5053,6.4818,6.4818,6.4818,0,0,6.4082,6.4127,6.4176,6.4278,6.4319,6.44,6.4339,6.4426,6.4486,6.4454,6.4564,6.4591,6.465,6.4775,6.4832,6.4801,6.5025,6.4957,6.4967,6.4973,6.5043,6.5066,6.5085,6.4825,6.4824,6.4823,0,0,6.4227,6.4269,6.4367,6.441,6.4474,6.4491,6.4515,6.4573,6.4591,6.4702,6.4679,6.4749,6.4876,6.4919,6.4958,6.5121,6.5099,6.5143,6.5225,6.5297,6.5315,6.5332,6.539,6.5411,6.5156,6.5156,6.5156,0,6.429,6.4412,6.4418,6.4509,6.4554,6.4531,6.463,6.467,6.4753,6.4784,6.4749,6.4909,6.4947,6.5082,6.5122,6.5154,6.518,6.5136,6.5312,6.5329,6.5344,6.54,6.5422,6.5161,6.5161,6.516,6.516,0,6.4485,6.457,6.4641,6.4725,6.4778,6.4871,6.4891,6.4944,6.494,6.4961,6.5074,6.5119,6.5198,6.523,6.5226,6.5365,6.5344,6.5311,6.5248,6.5371,6.5424,6.5445,6.5168,6.5167,6.5165,6.5164,0,0,6.4666,6.4754,6.478,6.4818,6.4887,6.4952,6.5044,6.5124,6.5169,6.5227,6.5304,6.5413,6.5384,6.5427,6.5428,6.5491,6.5618,6.545,6.5452,6.548,6.5774,6.5798,6.5823,6.5604,6.5608,6.5611,6.5769,0,6.4818,6.4983,6.4992,6.5141,6.5219,6.5199,6.5279,6.533,6.5352,6.542,6.5443,6.552,6.5475,6.5502,6.5563,6.5589,6.5677,6.5578,6.5675,6.5678,6.5661,6.585,6.5877,6.6023,6.5789,6.5793,6.5795,0,6.5016,6.5083,6.524,6.53,6.5333,6.5405,6.5479,6.5545,6.5602,6.5613,6.5663,6.5655,6.5749,6.5683,6.5812,6.5745,6.5785,6.5804,6.5809,6.5819,6.5744,6.5865,6.607,6.6092,6.5827,6.5825,6.5822,0,6.5133,6.5262,6.5373,6.5406,6.5478,6.553,6.5561,6.5614,6.5662,6.5726,6.5757,6.583,6.587,6.5927,6.5938,6.5889,6.6067,6.6002,6.6079,6.6079,6.6117,6.6114,6.6332,6.6143,6.6142,6.6142,6.6142,0,6.5301,6.5398,6.5427,6.5496,6.5604,6.5613,6.5719,6.5747,6.5795,6.5867,6.5853,6.5921,6.5933,6.6003,6.6012,6.6118,6.6136,6.6147,6.6148,6.6148,6.6147,6.6175,6.6165,6.6148,6.6147,6.6145,6.6144,0,6.545,6.5473,6.5593,6.5653,6.567,6.5747,6.5796,6.5861,6.5882,6.5974,6.5996,6.6028,6.611,6.6127,6.6224,6.623,6.6356,6.6347,6.6337,6.6337,6.6412,6.6405,6.6655,6.6688,6.6477,6.6479,6.6481,0,6.5556,6.563,6.5698,6.5747,6.5782,6.586,6.591,6.5921,6.5973,6.6044,6.61,6.6181,6.6247,6.6379,6.6409,6.6483,6.6476,6.6559,6.6487,6.6485,6.6478,6.6473,6.6481,6.6572,6.6574,6.6576,6.6578,0,6.5741,6.5749,6.5822,6.5899,6.5959,6.6019,6.6077,6.6117,6.6136,6.6194,6.628,6.6331,6.6431,6.6511,6.6586,6.6616,6.6601,6.66,6.6622,6.6623,6.6615,6.6621,6.6375,6.6594,6.6593,6.6591,6.6591,6.659,6.5872,6.5938,6.5997,6.6078,6.6123,6.6177,6.6242,6.6271,6.6343,6.6427,6.6429,6.6522,6.6577,6.6675,6.6711,6.6783,6.6757,6.6788,6.6796,6.6804,6.6811,6.6603,6.6796,6.6796,6.6795,6.6795,6.6795,0,6.6057,6.6094,6.6169,6.6251,6.6315,6.6297,6.636,6.6414,6.6496,6.655,6.6615,6.6713,6.6791,6.6829,6.6906,6.6956,6.6951,6.6976,6.6973,6.698,6.683,6.6804,6.6979,6.6979,6.6979,6.6979,6.6979,6.6979,6.616,6.6271,6.6287,6.642,6.6455,6.6548,6.6586,6.6636,6.6679,6.679,6.6855,6.688,6.6927,6.7008,6.7078,6.7087,6.7116,6.7145,6.715,6.7009,6.699,6.6973,6.6948,6.7151,6.7152,6.7295,6.7296,6.7297]}]]